Location: Cruquius
(52.3348°N, 4.6319°E)
Time: 00:26:55
(UTC+00:00)

NOSS 3-3 (C) - Pass Details

Date: 01 October 2021
Orbit: 801 x 1411 km, 63.4° (Epoch: 05 October)

Event Time Altitude Azimuth Distance (km) Brightness Sun altitude
Rises 21:03:37 0° 305° (NW) 4,095 8.3 -32.5°
Reaches altitude 10° 21:08:28 10° 278° (W) 3,262 7.3 -33.0°
Maximum altitude 21:11:13 12° 257° (WSW) 3,160 6.9 -33.3°
Drops below altitude 10° 21:14:04 10° 237° (WSW) 3,381 6.9 -33.6°
Enters shadow 21:17:46 - 217° (SW) 4,055 7.1 -34.0°
